Location: Gad�tanya
(48.0500°N, 20.8500°E)
Time: 11:51:14
(UTC+00:00)

Meteor 2-2 Rocket - Pass Details

Date: 05 July 2020
Orbit: 852 x 929 km, 81.3° (Epoch: 14 August)

Event Time Altitude Azimuth Distance (km) Brightness Sun altitude
Rises 20:40:51 0° 348° (NNW) 3,527 9.0 -14.3°
Reaches altitude 10° 20:43:20 10° 350° (N) 2,571 7.9 -14.5°
Maximum altitude 20:49:12 82° 77° (ENE) 892 4.3 -14.9°
Enters shadow 20:52:59 22° 165° (SSE) 1,792 5.3 -15.2°
